Location: Huesca
(42.1318°N, 0.4078°W)
Time: 05:27:16
(UTC+02:00)

RS-15 - Pass Details

Date: 02 May 2024
Orbit: 1896 x 2149 km, 64.8° (Epoch: 29 May)

Event Time Altitude Azimuth Distance (km) Brightness Sun altitude
Rises 23:59:20 0° 277° (W) 5,550 11.0 -26.2°
Reaches altitude 10° 00:03:51 10° 291° (WNW) 4,510 10.6 -26.6°
Maximum altitude 00:12:55 25° 343° (NNW) 3,360 9.9 -27.5°
Drops below altitude 10° 00:21:43 10° 36° (NE) 4,357 10.1 -28.2°
Sets 00:26:00 0° 49° (NE) 5,327 10.5 -28.6°
